,,Stat6,,Stat2,,Stat8,,Stat9,,Stat10,,Wind1,,Wind1,
time,status,PA1M_AVG,status,PR1M_SUM,status,RH1M_AVG,status,SR1M_AVG,status,TA1M_AVG,status,W1dAve1m,status,W1sAve1m,
2008-12-24, 00:00:00,VALID,916.928,VALID,0,VALID,93.0573,VALID,-0.0169808,VALID,20.1795,VALID,129,VALID,0.482777,
2008-12-24, 00:01:00,VALID,916.909,VALID,0,VALID,93.042,VALID,-0.0169808,VALID,20.1828,VALID,124,VALID,0.182118,
2008-12-24, 00:02:00,VALID,916.909,VALID,0,VALID,92.9009,VALID,-0.0509425,VALID,20.1958,VALID,133,VALID,0.479353,
2008-12-24, 00:03:00,VALID,916.883,VALID,0,VALID,92.6847,VALID,-0.0509425,VALID,20.2282,VALID,143,VALID,0.456055,
2008-12-24, 00:04:00,VALID,916.885,VALID,0,VALID,92.4228,VALID,-0.101885,VALID,20.2839,VALID,136,VALID,0.384266,
2008-12-24, 00:05:00,VALID,916.89,VALID,0,VALID,92.2587,VALID,-0.0849042,VALID,20.3066,VALID,157,VALID,0.0213415,
2008-12-24, 00:06:00,VALID,916.901,VALID,0,VALID,92.0324,VALID,-0.101885,VALID,20.3293,VALID,146,VALID,0.700694,
2008-12-24, 00:07:00,VALID,916.9,VALID,0,VALID,91.8747,VALID,-0.0169808,VALID,20.3543,VALID,167,VALID,0.651344,
2008-12-24, 00:08:00,VALID,916.907,VALID,0,VALID,91.6598,VALID,0.0509425,VALID,20.4054,VALID,157,VALID,0.59375,
2008-12-24, 00:09:00,VALID,916.907,VALID,0,VALID,91.6344,VALID,0.0169808,VALID,20.4119,VALID,138,VALID,0,
2008-12-24, 00:10:00,VALID,916.921,VALID,0,VALID,91.6725,VALID,0.0509425,VALID,20.4019,VALID,152,VALID,0.337081,
2008-12-24, 00:11:00,VALID,916.915,VALID,0,VALID,91.6738,VALID,0.0339617,VALID,20.3922,VALID,143,VALID,0.144159,
2008-12-24, 00:12:00,VALID,916.92,VALID,0,VALID,91.6077,VALID,0.0679233,VALID,20.3824,VALID,134,VALID,0.28343,
2008-12-24, 00:13:00,VALID,916.926,VALID,0,VALID,91.656,VALID,0.0339617,VALID,20.3827,VALID,142,VALID,0.0241815,
2008-12-24, 00:14:00,VALID,916.92,VALID,0,VALID,91.6217,VALID,0.0509425,VALID,20.3662,VALID,143,VALID,0.166726,
2008-12-24, 00:15:00,VALID,916.921,VALID,0,VALID,91.5008,VALID,0.0169808,VALID,20.3929,VALID,136,VALID,0.133523,
2008-12-24, 00:16:00,VALID,916.931,VALID,0,VALID,91.3254,VALID,0.0679233,VALID,20.4122,VALID,156,VALID,0.214558,
2008-12-24, 00:17:00,VALID,916.935,VALID,0,VALID,91.2287,VALID,0.0339617,VALID,20.4214,VALID,147,VALID,0.133614,
2008-12-24, 00:18:00,VALID,916.929,VALID,0,VALID,91.2847,VALID,0,VALID,20.4314,VALID,139,VALID,0.0603198,
2008-12-24, 00:19:00,VALID,916.911,VALID,0,VALID,91.2325,VALID,0.0339617,VALID,20.4184,VALID,170,VALID,0.0128997,
2008-12-24, 00:20:00,VALID,916.914,VALID,0,VALID,91.1664,VALID,0.0849042,VALID,20.4181,VALID,173,VALID,0.283727,
2008-12-24, 00:21:00,VALID,916.913,VALID,0,VALID,91.1613,VALID,0.0849042,VALID,20.4081,VALID,173,VALID,0,
2008-12-24, 00:22:00,VALID,916.909,VALID,0,VALID,91.2783,VALID,-0.0169808,VALID,20.4219,VALID,173,VALID,0,
2008-12-24, 00:23:00,VALID,916.901,VALID,0,VALID,91.155,VALID,-0.0509425,VALID,20.4229,VALID,171,VALID,0,
2008-12-24, 00:24:00,VALID,916.906,VALID,0,VALID,91.5136,VALID,-0.0339617,VALID,20.4327,VALID,138,VALID,0,
2008-12-24, 00:25:00,VALID,916.902,VALID,0,VALID,91.8671,VALID,-0.0679233,VALID,20.3907,VALID,134,VALID,0,
2008-12-24, 00:26:00,VALID,916.889,VALID,0,VALID,91.7781,VALID,-0.0509425,VALID,20.3385,VALID,135,VALID,0,
2008-12-24, 00:27:00,VALID,916.888,VALID,0,VALID,91.7068,VALID,-0.0509425,VALID,20.3191,VALID,150,VALID,0,
2008-12-24, 00:28:00,VALID,916.881,VALID,0,VALID,91.7844,VALID,-0.0849042,VALID,20.3258,VALID,155,VALID,0.124256,
2008-12-24, 00:29:00,VALID,916.86,VALID,0,VALID,91.7742,VALID,-0.0849042,VALID,20.3223,VALID,145,VALID,0.283203,
2008-12-24, 00:30:00,VALID,916.862,VALID,0,VALID,91.6242,VALID,-0.0849042,VALID,20.3256,VALID,130,VALID,0.268164,
2008-12-24, 00:31:00,VALID,916.847,VALID,0,VALID,91.6395,VALID,-0.0169808,VALID,20.3383,VALID,122,VALID,0.0897436,
2008-12-24, 00:32:00,VALID,916.841,VALID,0,VALID,91.7501,VALID,-0.0679233,VALID,20.3288,VALID,128,VALID,0.12035,
2008-12-24, 00:33:00,VALID,916.814,VALID,0,VALID,91.6712,VALID,-0.0679233,VALID,20.3126,VALID,133,VALID,0,
2008-12-24, 00:34:00,VALID,916.815,VALID,0,VALID,91.6191,VALID,-0.0509425,VALID,20.3158,VALID,133,VALID,0,
2008-12-24, 00:35:00,VALID,916.825,VALID,0,VALID,92.1316,VALID,-0.0339617,VALID,20.3126,VALID,133,VALID,0,
2008-12-24, 00:36:00,VALID,916.811,VALID,0,VALID,92.438,VALID,-0.0339617,VALID,20.2504,VALID,133,VALID,0,
2008-12-24, 00:37:00,VALID,916.814,VALID,0,VALID,92.6275,VALID,-0.0339617,VALID,20.209,VALID,133,VALID,0,
2008-12-24, 00:38:00,VALID,916.804,VALID,0,VALID,92.6262,VALID,-0.0509425,VALID,20.1508,VALID,133,VALID,0,
2008-12-24, 00:39:00,VALID,916.793,VALID,0,VALID,92.6199,VALID,-0.0509425,VALID,20.1111,VALID,133,VALID,0,
2008-12-24, 00:40:00,VALID,916.767,VALID,0,VALID,92.7229,VALID,-0.0679233,VALID,20.1081,VALID,133,VALID,0,
2008-12-24, 00:41:00,VALID,916.738,VALID,0,VALID,93.1603,VALID,-0.0679233,VALID,20.1309,VALID,161,VALID,0,
2008-12-24, 00:42:00,VALID,916.749,VALID,0,VALID,93.1234,VALID,-0.0849042,VALID,20.1409,VALID,186,VALID,0,
2008-12-24, 00:43:00,VALID,916.734,VALID,0,VALID,93.3676,VALID,-0.0849042,VALID,20.1341,VALID,113,VALID,0.187309,
2008-12-24, 00:44:00,VALID,916.722,VALID,0,VALID,93.9144,VALID,-0.0849042,VALID,20.1149,VALID,35,VALID,0,
2008-12-24, 00:45:00,VALID,916.71,VALID,0,VALID,94.2335,VALID,-0.101885,VALID,20.0011,VALID,35,VALID,0,
2008-12-24, 00:46:00,VALID,916.684,VALID,0,VALID,94.5057,VALID,-0.101885,VALID,19.9526,VALID,35,VALID,0,
2008-12-24, 00:47:01,VALID,916.66,VALID,0,VALID,94.2933,VALID,-0.118866,VALID,19.904,VALID,35,VALID,0,
2008-12-24, 00:48:00,VALID,916.634,VALID,0,VALID,94.0326,VALID,-0.0849042,VALID,19.878,VALID,35,VALID,0,
2008-12-24, 00:49:00,VALID,916.599,VALID,0,VALID,93.9538,VALID,-0.101885,VALID,19.9005,VALID,35,VALID,0,
2008-12-24, 00:50:01,VALID,916.601,VALID,0,VALID,94.2984,VALID,-0.0849042,VALID,19.9394,VALID,35,VALID,0,
2008-12-24, 00:51:00,VALID,916.581,VALID,0,VALID,94.8134,VALID,-0.0509425,VALID,19.9427,VALID,35,VALID,0,
2008-12-24, 00:52:00,VALID,916.581,VALID,0,VALID,94.9329,VALID,-0.0339617,VALID,19.91,VALID,34,VALID,0,
2008-12-24, 00:53:00,VALID,916.58,VALID,0,VALID,94.9978,VALID,-0.0339617,VALID,19.8745,VALID,12,VALID,0,
2008-12-24, 00:54:00,VALID,916.573,VALID,0,VALID,95.3538,VALID,-0.0679233,VALID,19.8486,VALID,3,VALID,0.0424107,
2008-12-24, 00:55:00,VALID,916.564,VALID,0,VALID,95.7137,VALID,-0.0679233,VALID,19.8094,INVALID,360,VALID,0,
2008-12-24, 00:56:00,VALID,916.572,VALID,0,VALID,96.1079,VALID,-0.0339617,VALID,19.7772,VALID,273,VALID,0,
2008-12-24, 00:57:00,VALID,916.576,VALID,0,VALID,96.4728,VALID,-0.0509425,VALID,19.7382,VALID,271,VALID,0,
2008-12-24, 00:58:01,VALID,916.584,VALID,0,VALID,96.8963,VALID,-0.0339617,VALID,19.6928,VALID,273,VALID,0.0090843,
2008-12-24, 00:59:00,VALID,916.58,VALID,0,VALID,97.2523,VALID,-0.0849042,VALID,19.6506,VALID,295,VALID,0.0236192,
2008-12-24, 01:00:01,VALID,916.595,VALID,0,VALID,97.4621,VALID,-0.0339617,VALID,19.5985,VALID,295,VALID,0,
2008-12-24, 01:01:00,VALID,916.616,VALID,0,VALID,97.7762,VALID,-0.0679233,VALID,19.5598,VALID,295,VALID,0,
2008-12-24, 01:02:01,VALID,916.602,VALID,0,VALID,98.0318,VALID,-0.0679233,VALID,19.5239,VALID,295,VALID,0,
2008-12-24, 01:03:01,VALID,916.593,VALID,0,VALID,98.1628,VALID,-0.0339617,VALID,19.4951,VALID,295,VALID,0,
2008-12-24, 01:04:01,VALID,916.594,VALID,0,VALID,98.2925,VALID,-0.0339617,VALID,19.4657,VALID,295,VALID,0,
2008-12-24, 01:05:00,VALID,916.592,VALID,0,VALID,98.3955,VALID,-0.0509425,VALID,19.4203,VALID,278,VALID,0,
2008-12-24, 01:06:00,VALID,916.587,VALID,0,VALID,98.6104,VALID,-0.0679233,VALID,19.3751,VALID,278,VALID,0,
2008-12-24, 01:07:00,VALID,916.574,VALID,0,VALID,98.7719,VALID,-0.0679233,VALID,19.3492,VALID,278,VALID,0,
2008-12-24, 01:08:00,VALID,916.588,VALID,0,VALID,98.8787,VALID,-0.0339617,VALID,19.3227,VALID,274,VALID,0,
2008-12-24, 01:09:00,VALID,916.581,VALID,0,VALID,99.0898,VALID,-0.0339617,VALID,19.29,VALID,257,VALID,0,
2008-12-24, 01:10:00,VALID,916.576,VALID,0,VALID,99.2678,VALID,-0.0339617,VALID,19.2613,VALID,257,VALID,0,
2008-12-24, 01:11:00,VALID,916.547,VALID,0,VALID,99.4153,VALID,-0.0339617,VALID,19.2384,VALID,257,VALID,0,
2008-12-24, 01:12:00,VALID,916.537,VALID,0,VALID,99.498,VALID,-0.0679233,VALID,19.2289,VALID,257,VALID,0,
2008-12-24, 01:13:00,VALID,916.539,VALID,0,VALID,99.5883,VALID,-0.0339617,VALID,19.2097,VALID,257,VALID,0,
2008-12-24, 01:14:00,VALID,916.528,VALID,0,VALID,99.6887,VALID,-0.0509425,VALID,19.1964,VALID,257,VALID,0,
2008-12-24, 01:15:01,VALID,916.531,VALID,0,VALID,99.7726,VALID,-0.0169808,VALID,19.1932,VALID,257,VALID,0,
2008-12-24, 01:16:00,VALID,916.533,VALID,0,VALID,99.8502,VALID,-0.0339617,VALID,19.1997,VALID,257,VALID,0,
2008-12-24, 01:17:00,VALID,916.51,VALID,0,VALID,99.9112,VALID,0,VALID,19.2127,VALID,257,VALID,0,
2008-12-24, 01:18:00,VALID,916.514,VALID,0,VALID,99.8998,VALID,0,VALID,19.2094,VALID,257,VALID,0,
2008-12-24, 01:19:00,VALID,916.507,VALID,0,VALID,99.943,VALID,-0.0169808,VALID,19.2159,VALID,257,VALID,0,
2008-12-24, 01:20:01,VALID,916.489,VALID,0,VALID,99.8845,VALID,-0.0509425,VALID,19.2226,VALID,257,VALID,0,
2008-12-24, 01:21:00,VALID,916.481,VALID,0,VALID,99.9354,VALID,-0.0509425,VALID,19.2127,VALID,257,VALID,0,
2008-12-24, 01:22:00,VALID,916.459,VALID,0,VALID,99.9634,VALID,-0.0509425,VALID,19.2059,VALID,257,VALID,0,
2008-12-24, 01:23:01,VALID,916.448,VALID,0,VALID,99.9941,VALID,-0.0339617,VALID,19.2029,VALID,257,VALID,0,
2008-12-24, 01:24:00,VALID,916.425,VALID,0,VALID,100,VALID,0,VALID,19.1862,VALID,258,VALID,0,
2008-12-24, 01:25:00,VALID,916.422,VALID,0,VALID,100,VALID,0,VALID,19.2022,VALID,297,VALID,0,
2008-12-24, 01:26:00,VALID,916.408,VALID,0,VALID,100,VALID,-0.0679233,VALID,19.1869,VALID,303,VALID,0,
2008-12-24, 01:27:00,VALID,916.395,VALID,0,VALID,100,VALID,-0.0679233,VALID,19.1705,VALID,303,VALID,0,
2008-12-24, 01:28:01,VALID,916.37,VALID,0,VALID,100,VALID,-0.0509425,VALID,19.1607,VALID,303,VALID,0,
2008-12-24, 01:29:01,VALID,916.363,VALID,0,VALID,100,VALID,-0.0339617,VALID,19.154,VALID,303,VALID,0,
2008-12-24, 01:30:01,VALID,916.339,VALID,0,VALID,100,VALID,-0.0339617,VALID,19.151,VALID,302,VALID,0,
2008-12-24, 01:31:01,VALID,916.333,VALID,0,VALID,100,VALID,-0.0169808,VALID,19.141,VALID,302,VALID,0,
2008-12-24, 01:32:01,VALID,916.314,VALID,0,VALID,100,VALID,-0.0509425,VALID,19.1211,VALID,283,VALID,0,
2008-12-24, 01:33:01,VALID,916.307,VALID,0,VALID,100,VALID,-0.0169808,VALID,19.1016,VALID,281,VALID,0,
2008-12-24, 01:34:00,VALID,916.295,VALID,0,VALID,100,VALID,0,VALID,19.0984,VALID,281,VALID,0,
2008-12-24, 01:35:01,VALID,916.28,VALID,0,VALID,100,VALID,-0.0169808,VALID,19.0921,VALID,293,VALID,0,
2008-12-24, 01:36:01,VALID,916.251,VALID,0,VALID,100,VALID,0,VALID,19.0859,VALID,333,VALID,0,
2008-12-24, 01:37:01,VALID,916.235,VALID,0,VALID,100,VALID,-0.0169808,VALID,19.0692,VALID,333,VALID,0,
2008-12-24, 01:38:01,VALID,916.212,VALID,0,VALID,100,VALID,0,VALID,19.0567,VALID,333,VALID,0,
2008-12-24, 01:39:01,VALID,916.195,VALID,0,VALID,100,VALID,-0.0169808,VALID,19.0562,VALID,333,VALID,0,
2008-12-24, 01:40:01,VALID,916.177,VALID,0,VALID,100,VALID,0,VALID,19.0465,VALID,333,VALID,0,
2008-12-24, 01:41:01,VALID,916.16,VALID,0,VALID,100,VALID,0.0169808,VALID,19.046,VALID,333,VALID,0,
2008-12-24, 01:42:00,VALID,916.137,VALID,0,VALID,100,VALID,0,VALID,19.0467,VALID,333,VALID,0,
2008-12-24, 01:43:00,VALID,916.122,VALID,0,VALID,100,VALID,0.0339617,VALID,19.0532,VALID,333,VALID,0,
2008-12-24, 01:44:00,VALID,916.111,VALID,0,VALID,100,VALID,0.0169808,VALID,19.0465,VALID,333,VALID,0,
2008-12-24, 01:45:00,VALID,916.097,VALID,0,VALID,100,VALID,0,VALID,19.0567,VALID,333,VALID,0,
2008-12-24, 01:46:00,VALID,916.09,VALID,0,VALID,100,VALID,-0.0169808,VALID,19.0428,VALID,333,VALID,0,
2008-12-24, 01:47:00,VALID,916.07,VALID,0,VALID,100,VALID,-0.0509425,VALID,19.0335,VALID,333,VALID,0,
2008-12-24, 01:48:00,VALID,916.062,VALID,0,VALID,100,VALID,-0.0339617,VALID,19.0407,VALID,333,VALID,0,
2008-12-24, 01:49:00,VALID,916.05,VALID,0,VALID,100,VALID,-0.0169808,VALID,19.0203,VALID,332,VALID,0,
2008-12-24, 01:50:00,VALID,916.03,VALID,0,VALID,100,VALID,-0.0509425,VALID,19.021,VALID,332,VALID,0,
2008-12-24, 01:51:00,VALID,916.027,VALID,0,VALID,100,VALID,-0.0169808,VALID,19.018,VALID,332,VALID,0,
2008-12-24, 01:52:00,VALID,915.999,VALID,0,VALID,100,VALID,-0.0339617,VALID,19.008,VALID,332,VALID,0,
2008-12-24, 01:53:00,VALID,915.99,VALID,0,VALID,100,VALID,0,VALID,19.0016,VALID,332,VALID,0,
2008-12-24, 01:54:00,VALID,915.983,VALID,0,VALID,100,VALID,0,VALID,18.9849,VALID,321,VALID,0,
2008-12-24, 01:55:00,VALID,915.979,VALID,0,VALID,100,VALID,0,VALID,18.9684,VALID,311,VALID,0,
2008-12-24, 01:56:00,VALID,915.978,VALID,0,VALID,100,VALID,0,VALID,18.9557,VALID,298,VALID,0,
2008-12-24, 01:57:00,VALID,915.975,VALID,0,VALID,100,VALID,0,VALID,18.9531,VALID,296,VALID,0,
2008-12-24, 01:58:00,VALID,915.955,VALID,0,VALID,100,VALID,-0.0169808,VALID,18.9489,VALID,296,VALID,0,
2008-12-24, 01:59:00,VALID,915.938,VALID,0,VALID,100,VALID,-0.0339617,VALID,18.9686,VALID,296,VALID,0,
2008-12-24, 02:00:00,VALID,915.918,VALID,0,VALID,100,VALID,-0.0339617,VALID,18.9784,VALID,296,VALID,0,
2008-12-24, 02:01:00,VALID,915.902,VALID,0,VALID,100,VALID,-0.0169808,VALID,18.9654,VALID,296,VALID,0,
2008-12-24, 02:02:00,VALID,915.881,VALID,0,VALID,100,VALID,-0.0339617,VALID,18.9654,VALID,296,VALID,0,
2008-12-24, 02:03:00,VALID,915.877,VALID,0,VALID,100,VALID,-0.0169808,VALID,18.9617,VALID,296,VALID,0,
2008-12-24, 02:04:00,VALID,915.871,VALID,0,VALID,100,VALID,0,VALID,18.9754,VALID,296,VALID,0,
2008-12-24, 02:05:00,VALID,915.87,VALID,0,VALID,100,VALID,0,VALID,18.9587,VALID,296,VALID,0,
2008-12-24, 02:06:00,VALID,915.868,VALID,0,VALID,100,VALID,0,VALID,18.9422,VALID,296,VALID,0,
2008-12-24, 02:07:00,VALID,915.868,VALID,0,VALID,100,VALID,-0.0339617,VALID,18.9499,VALID,296,VALID,0,
2008-12-24, 02:08:00,VALID,915.869,VALID,0,VALID,100,VALID,-0.101885,VALID,18.9374,VALID,296,VALID,0,
2008-12-24, 02:09:00,VALID,915.875,VALID,0,VALID,100,VALID,-0.118866,VALID,18.9309,VALID,295,VALID,0,
2008-12-24, 02:10:00,VALID,915.854,VALID,0,VALID,100,VALID,-0.0849042,VALID,18.9242,VALID,295,VALID,0,
2008-12-24, 02:11:00,VALID,915.832,VALID,0,VALID,100,VALID,-0.135847,VALID,18.9147,VALID,295,VALID,0,
2008-12-24, 02:12:00,VALID,915.825,VALID,0,VALID,100,VALID,-0.101885,VALID,18.9082,VALID,295,VALID,0,
2008-12-24, 02:13:00,VALID,915.803,VALID,0,VALID,100,VALID,-0.135847,VALID,18.8857,VALID,295,VALID,0,
2008-12-24, 02:14:00,VALID,915.81,VALID,0,VALID,100,VALID,-0.118866,VALID,18.8927,VALID,295,VALID,0,
2008-12-24, 02:15:00,VALID,915.802,VALID,0,VALID,100,VALID,-0.101885,VALID,18.8728,VALID,295,VALID,0,
2008-12-24, 02:16:00,VALID,915.791,VALID,0,VALID,100,VALID,-0.0849042,VALID,18.866,VALID,295,VALID,0,
2008-12-24, 02:17:00,VALID,915.784,VALID,0,VALID,100,VALID,-0.135847,VALID,18.8598,VALID,295,VALID,0,
2008-12-24, 02:18:00,VALID,915.785,VALID,0,VALID,100,VALID,-0.101885,VALID,18.8496,VALID,295,VALID,0,
2008-12-24, 02:19:00,VALID,915.765,VALID,0,VALID,100,VALID,-0.118866,VALID,18.8538,VALID,295,VALID,0,
2008-12-24, 02:20:00,VALID,915.746,VALID,0,VALID,100,VALID,-0.118866,VALID,18.8338,VALID,295,VALID,0,
2008-12-24, 02:21:00,VALID,915.728,VALID,0,VALID,100,VALID,-0.135847,VALID,18.8338,VALID,295,VALID,0,
2008-12-24, 02:22:00,VALID,915.714,VALID,0,VALID,100,VALID,-0.0509425,VALID,18.8266,VALID,295,VALID,0,
2008-12-24, 02:23:00,VALID,915.701,VALID,0,VALID,100,VALID,-0.0339617,VALID,18.7962,VALID,295,VALID,0,
2008-12-24, 02:24:00,VALID,915.687,VALID,0,VALID,100,VALID,-0.0169808,VALID,18.7937,VALID,295,VALID,0,
2008-12-24, 02:25:00,VALID,915.681,VALID,0,VALID,100,VALID,0.0169808,VALID,18.777,VALID,295,VALID,0,
2008-12-24, 02:26:00,VALID,915.667,VALID,0,VALID,100,VALID,-0.0509425,VALID,18.7583,VALID,295,VALID,0,
2008-12-24, 02:27:00,VALID,915.679,VALID,0,VALID,100,VALID,-0.0339617,VALID,18.7416,VALID,295,VALID,0,
2008-12-24, 02:28:00,VALID,915.67,VALID,0,VALID,100,VALID,-0.0169808,VALID,18.7356,VALID,295,VALID,0,
2008-12-24, 02:29:00,VALID,915.677,VALID,0,VALID,100,VALID,0,VALID,18.7356,VALID,295,VALID,0,
2008-12-24, 02:30:00,VALID,915.673,VALID,0,VALID,100,VALID,0,VALID,18.7152,VALID,295,VALID,0,
2008-12-24, 02:31:00,VALID,915.67,VALID,0,VALID,100,VALID,-0.0509425,VALID,18.7226,VALID,295,VALID,0,
2008-12-24, 02:32:00,VALID,915.672,VALID,0,VALID,100,VALID,0,VALID,18.7191,VALID,295,VALID,0,
2008-12-24, 02:33:00,VALID,915.658,VALID,0,VALID,100,VALID,-0.0169808,VALID,18.7256,VALID,295,VALID,0,
2008-12-24, 02:34:00,VALID,915.661,VALID,0,VALID,100,VALID,-0.0339617,VALID,18.7189,VALID,295,VALID,0,
2008-12-24, 02:35:00,VALID,915.665,VALID,0,VALID,100,VALID,0,VALID,18.7184,VALID,295,VALID,0,
2008-12-24, 02:36:00,VALID,915.662,VALID,0,VALID,100,VALID,-0.0169808,VALID,18.7184,VALID,295,VALID,0,
2008-12-24, 02:37:00,VALID,915.653,VALID,0,VALID,100,VALID,0,VALID,18.7156,VALID,295,VALID,0,
2008-12-24, 02:38:00,VALID,915.647,VALID,0,VALID,100,VALID,-0.0169808,VALID,18.7096,VALID,295,VALID,0,
2008-12-24, 02:39:00,VALID,915.636,VALID,0,VALID,100,VALID,-0.0339617,VALID,18.6997,VALID,295,VALID,0,
2008-12-24, 02:40:00,VALID,915.613,VALID,0,VALID,100,VALID,-0.0169808,VALID,18.6999,VALID,295,VALID,0,
2008-12-24, 02:41:00,VALID,915.607,VALID,0,VALID,100,VALID,0,VALID,18.683,VALID,295,VALID,0,
2008-12-24, 02:42:00,VALID,915.602,VALID,0,VALID,100,VALID,-0.0509425,VALID,18.6767,VALID,295,VALID,0,
2008-12-24, 02:43:00,VALID,915.596,VALID,0,VALID,100,VALID,-0.0339617,VALID,18.6769,VALID,295,VALID,0,
2008-12-24, 02:44:00,VALID,915.591,VALID,0,VALID,100,VALID,-0.0169808,VALID,18.6672,VALID,295,VALID,0,
2008-12-24, 02:45:00,VALID,915.588,VALID,0,VALID,100,VALID,-0.0169808,VALID,18.6605,VALID,295,VALID,0,
2008-12-24, 02:46:00,VALID,915.587,VALID,0,VALID,100,VALID,0,VALID,18.6605,VALID,295,VALID,0,
2008-12-24, 02:47:00,VALID,915.587,VALID,0,VALID,100,VALID,0.0169808,VALID,18.6635,VALID,295,VALID,0,
2008-12-24, 02:48:00,VALID,915.585,VALID,0,VALID,100,VALID,0,VALID,18.6598,VALID,295,VALID,0,
2008-12-24, 02:49:00,VALID,915.585,VALID,0,VALID,100,VALID,0,VALID,18.6698,VALID,295,VALID,0,
2008-12-24, 02:50:00,VALID,915.579,VALID,0,VALID,100,VALID,-0.0169808,VALID,18.673,VALID,295,VALID,0,
2008-12-24, 02:51:00,VALID,915.57,VALID,0,VALID,100,VALID,0.0169808,VALID,18.6667,VALID,295,VALID,0,
2008-12-24, 02:52:00,VALID,915.558,VALID,0,VALID,100,VALID,-0.0169808,VALID,18.6862,VALID,295,VALID,0,
2008-12-24, 02:53:00,VALID,915.556,VALID,0,VALID,100,VALID,-0.0339617,VALID,18.6927,VALID,295,VALID,0,
2008-12-24, 02:54:00,VALID,915.541,VALID,0,VALID,100,VALID,0,VALID,18.6957,VALID,295,VALID,0,
2008-12-24, 02:55:00,VALID,915.544,VALID,0,VALID,100,VALID,0,VALID,18.6925,VALID,295,VALID,0,
2008-12-24, 02:56:00,VALID,915.54,VALID,0,VALID,100,VALID,-0.0169808,VALID,18.6994,VALID,295,VALID,0,
2008-12-24, 02:57:00,VALID,915.536,VALID,0,VALID,100,VALID,-0.0339617,VALID,18.6864,VALID,295,VALID,0,
2008-12-24, 02:58:00,VALID,915.543,VALID,0,VALID,100,VALID,0,VALID,18.6769,VALID,295,VALID,0,
2008-12-24, 02:59:00,VALID,915.541,VALID,0,VALID,100,VALID,-0.0679233,VALID,18.6542,VALID,295,VALID,0,
2008-12-24, 03:00:00,VALID,915.538,VALID,0,VALID,100,VALID,-0.0169808,VALID,18.6183,VALID,295,VALID,0,
2008-12-24, 03:01:00,VALID,915.523,VALID,0,VALID,100,VALID,0,VALID,18.6186,VALID,295,VALID,0,
2008-12-24, 03:02:00,VALID,915.502,VALID,0,VALID,100,VALID,-0.0169808,VALID,18.6318,VALID,295,VALID,0,
2008-12-24, 03:03:00,VALID,915.487,VALID,0,VALID,100,VALID,-0.0509425,VALID,18.6478,VALID,295,VALID,0,
2008-12-24, 03:04:00,VALID,915.478,VALID,0,VALID,100,VALID,-0.0169808,VALID,18.6413,VALID,295,VALID,0,
2008-12-24, 03:05:00,VALID,915.476,VALID,0,VALID,100,VALID,-0.0169808,VALID,18.6241,VALID,295,VALID,0,
2008-12-24, 03:06:00,VALID,915.471,VALID,0,VALID,100,VALID,0,VALID,18.6378,VALID,295,VALID,0,
2008-12-24, 03:07:00,VALID,915.452,VALID,0,VALID,100,VALID,0,VALID,18.6276,VALID,295,VALID,0,
2008-12-24, 03:08:00,VALID,915.449,VALID,0,VALID,100,VALID,0,VALID,18.6246,VALID,295,VALID,0,
2008-12-24, 03:09:00,VALID,915.442,VALID,0,VALID,100,VALID,0,VALID,18.6278,VALID,295,VALID,0,
2008-12-24, 03:10:00,VALID,915.442,VALID,0,VALID,100,VALID,-0.0339617,VALID,18.6281,VALID,295,VALID,0,
2008-12-24, 03:11:00,VALID,915.445,VALID,0,VALID,100,VALID,0,VALID,18.6311,VALID,295,VALID,0,
2008-12-24, 03:12:00,VALID,915.426,VALID,0,VALID,100,VALID,0,VALID,18.6315,VALID,295,VALID,0,
2008-12-24, 03:13:00,VALID,915.43,VALID,0,VALID,100,VALID,-0.0169808,VALID,18.6246,VALID,295,VALID,0,
2008-12-24, 03:14:00,VALID,915.422,VALID,0,VALID,100,VALID,0,VALID,18.6081,VALID,295,VALID,0,
2008-12-24, 03:15:00,VALID,915.414,VALID,0,VALID,100,VALID,-0.0169808,VALID,18.6049,VALID,295,VALID,0,
2008-12-24, 03:16:00,VALID,915.423,VALID,0,VALID,100,VALID,-0.0339617,VALID,18.5961,VALID,295,VALID,0,
2008-12-24, 03:17:00,VALID,915.414,VALID,0,VALID,100,VALID,-0.0169808,VALID,18.5954,VALID,295,VALID,0,
2008-12-24, 03:18:00,VALID,915.409,VALID,0,VALID,100,VALID,-0.0339617,VALID,18.6248,VALID,295,VALID,0,
2008-12-24, 03:19:00,VALID,915.394,VALID,0,VALID,100,VALID,-0.0339617,VALID,18.6118,VALID,295,VALID,0,
2008-12-24, 03:20:00,VALID,915.396,VALID,0,VALID,100,VALID,-0.0509425,VALID,18.6153,VALID,295,VALID,0,
2008-12-24, 03:21:00,VALID,915.392,VALID,0,VALID,100,VALID,0,VALID,18.5954,VALID,295,VALID,0,
2008-12-24, 03:22:00,VALID,915.389,VALID,0,VALID,100,VALID,-0.0509425,VALID,18.5894,VALID,295,VALID,0,
2008-12-24, 03:23:00,VALID,915.389,VALID,0,VALID,100,VALID,-0.101885,VALID,18.5773,VALID,295,VALID,0,
2008-12-24, 03:24:00,VALID,915.382,VALID,0,VALID,100,VALID,-0.101885,VALID,18.5614,VALID,295,VALID,0,
2008-12-24, 03:25:00,VALID,915.373,VALID,0,VALID,100,VALID,-0.118866,VALID,18.5514,VALID,295,VALID,0,
2008-12-24, 03:26:00,VALID,915.365,VALID,0,VALID,100,VALID,-0.101885,VALID,18.5512,VALID,295,VALID,0,
2008-12-24, 03:27:00,VALID,915.363,VALID,0,VALID,100,VALID,-0.101885,VALID,18.5379,VALID,295,VALID,0,
2008-12-24, 03:28:00,VALID,915.355,VALID,0,VALID,100,VALID,-0.101885,VALID,18.5088,VALID,295,VALID,0,
2008-12-24, 03:29:00,VALID,915.357,VALID,0,VALID,100,VALID,-0.118866,VALID,18.5155,VALID,295,VALID,0,
2008-12-24, 03:30:00,VALID,915.356,VALID,0,VALID,100,VALID,-0.135847,VALID,18.5224,VALID,295,VALID,0,
2008-12-24, 03:31:00,VALID,915.354,VALID,0,VALID,100,VALID,-0.135847,VALID,18.5224,VALID,295,VALID,0,
2008-12-24, 03:32:00,VALID,915.372,VALID,0,VALID,100,VALID,-0.118866,VALID,18.5122,VALID,295,VALID,0,
2008-12-24, 03:33:00,VALID,915.378,VALID,0,VALID,100,VALID,-0.101885,VALID,18.5192,VALID,295,VALID,0,
2008-12-24, 03:34:00,VALID,915.375,VALID,0,VALID,100,VALID,-0.118866,VALID,18.5155,VALID,295,VALID,0,
2008-12-24, 03:35:00,VALID,915.371,VALID,0,VALID,100,VALID,-0.152827,VALID,18.5359,VALID,295,VALID,0,
2008-12-24, 03:36:00,VALID,915.358,VALID,0,VALID,100,VALID,-0.118866,VALID,18.5231,VALID,295,VALID,0,
2008-12-24, 03:37:00,VALID,915.359,VALID,0,VALID,100,VALID,-0.0679233,VALID,18.5152,VALID,272,VALID,0,
2008-12-24, 03:38:00,VALID,915.362,VALID,0,VALID,100,VALID,-0.0169808,VALID,18.5143,VALID,222,VALID,0,
2008-12-24, 03:39:00,VALID,915.362,VALID,0,VALID,100,VALID,-0.0509425,VALID,18.5176,VALID,207,VALID,0,
2008-12-24, 03:40:00,VALID,915.362,VALID,0,VALID,100,VALID,-0.0339617,VALID,18.524,VALID,207,VALID,0,
2008-12-24, 03:41:00,VALID,915.375,VALID,0,VALID,100,VALID,-0.0169808,VALID,18.5173,VALID,207,VALID,0,
2008-12-24, 03:42:00,VALID,915.382,VALID,0,VALID,100,VALID,-0.0339617,VALID,18.5243,VALID,207,VALID,0,
2008-12-24, 03:43:00,VALID,915.38,VALID,0,VALID,100,VALID,-0.0169808,VALID,18.524,VALID,207,VALID,0,
2008-12-24, 03:44:00,VALID,915.387,VALID,0,VALID,100,VALID,-0.0339617,VALID,18.5183,VALID,207,VALID,0,
2008-12-24, 03:45:00,VALID,915.38,VALID,0,VALID,100,VALID,-0.0509425,VALID,18.5217,VALID,207,VALID,0,
2008-12-24, 03:46:00,VALID,915.375,VALID,0,VALID,100,VALID,-0.0509425,VALID,18.5081,VALID,207,VALID,0,
2008-12-24, 03:47:00,VALID,915.391,VALID,0,VALID,100,VALID,-0.0339617,VALID,18.518,VALID,207,VALID,0,